Tucson, AZ

11:45 PM MST on June 24, 2017 (GMT -0700)
Tucson International

Weather History for KTUS - May, 2014

Change the Weather History Date:

Wednesday, May 21, 2014

  Actual Average Record
Temperature  
Mean Temperature 77 °F 78 °F  
Max Temperature 92 °F 93 °F 107 °F (2005)
Min Temperature 62 °F 62 °F 42 °F (1899)
Degree Days  
Heating Degree Days 0 0  
Month to date heating degree days 0 3  
Since 1 July heating degree days 899 1509  
Cooling Degree Days 12 13  
Month to date cooling degree days 224 205  
Year to date cooling degree days 436 359  
Growing Degree Days 26 (Base 50)    
Moisture  
Dew Point 12 °F    
Average Humidity 11    
Maximum Humidity 16    
Minimum Humidity 5    
Precipitation  
Precipitation 0.00 in 0.01 in 0.53 in (2009)
Month to date precipitation 0.00 0.15  
Year to date precipitation 0.61 2.99  
Sea Level Pressure  
Sea Level Pressure 29.81 in    
Wind  
Wind Speed 10 mph (SSW)    
Max Wind Speed 32 mph    
Max Gust Speed 42 mph    
Visibility 10 miles    
Events      
T = Trace of Precipitation, MM = Missing Value Source: NWS Daily Summary

Daily Weather History Graph

Daily Weather History Graph

Search for Another Location

Airport or City:

Trip Planner

Search our weather history database for the weather conditions in past years. The results will help you decide how hot, cold, wet, or windy it might be!

Date:

Astronomy

May. 21, 2014 Rise Set
Actual Time 5:22 AM MST 7:18 PM MST
Civil Twilight 4:55 AM MST 7:45 PM MST
Nautical Twilight 4:22 AM MST 8:18 PM MST
Astronomical Twilight 3:47 AM MST 8:54 PM MST
Moon 12:41 AM MST (5/21) 12:28 PM MST (5/21)
Length of Visible Light 14h 50m
Length of Day
13h 56m
Waning Gibbous, 47% of the Moon is Illuminated
May 21
Waning Gibbous
May 28
New
Jun 5
First Quarter
Jun 12
Full
Jun 19
Last Quarter

Hourly Weather History & Observations

Time (MST) Temp. Dew Point Humidity Pressure Visibility Wind Dir Wind Speed Gust Speed Precip Events Conditions
12:53 AM 73.0 °F 17.1 °F 12% 29.78 in 10.0 mi Calm Calm - N/A   Clear
1:53 AM 73.4 °F 15.8 °F 11% 29.92 in 10.0 mi ESE 5.8 mph - N/A   Clear
2:53 AM 70.0 °F 17.1 °F 13% 29.77 in 10.0 mi Calm Calm - N/A   Clear
3:53 AM 64.0 °F 18.0 °F 17% 29.78 in 10.0 mi Calm Calm - N/A   Clear
4:53 AM 64.4 °F 15.8 °F 15% 29.91 in 10.0 mi SE 3.5 mph - N/A   Clear
5:53 AM 63.0 °F 14.0 °F 15% 29.81 in 10.0 mi SSE 5.8 mph - N/A   Clear
6:53 AM 66.9 °F 14.0 °F 13% 29.82 in 10.0 mi SSE 6.9 mph - N/A   Clear
8:53 AM 78.1 °F 10.9 °F 8% 29.82 in 10.0 mi Calm Calm - N/A   Clear
9:53 AM 84.9 °F 14.0 °F 7% 29.81 in 10.0 mi SSW 17.3 mph 24.2 mph N/A   Clear
10:53 AM 87.8 °F 15.8 °F 7% 29.94 in 10.0 mi WSW 13.8 mph 25.3 mph N/A   Clear
11:53 AM 90.0 °F 17.1 °F 7% 29.79 in 10.0 mi SW 26.5 mph 41.4 mph N/A   Clear
12:53 PM 91.0 °F 14.0 °F 6% 29.78 in 10.0 mi SSW 25.3 mph 35.7 mph N/A   Clear
1:53 PM 91.9 °F 15.1 °F 6% 29.77 in 10.0 mi SW 17.3 mph 29.9 mph N/A   Clear
2:53 PM 91.0 °F 12.9 °F 6% 29.76 in 10.0 mi SSW 20.7 mph 29.9 mph N/A   Clear
3:53 PM 91.0 °F 10.0 °F 5% 29.76 in 10.0 mi SW 16.1 mph 29.9 mph N/A   Clear
4:53 PM 89.1 °F 8.1 °F 5% 29.76 in 10.0 mi WSW 20.7 mph 27.6 mph N/A   Clear
5:53 PM 87.1 °F 10.9 °F 6% 29.77 in 10.0 mi SW 15.0 mph 24.2 mph N/A   Clear
6:53 PM 84.0 °F 9.0 °F 6% 29.78 in 10.0 mi WSW 12.7 mph - N/A   Clear
7:53 PM 81.0 °F 8.1 °F 6% 29.79 in 10.0 mi WSW 6.9 mph - N/A   Clear
8:53 PM 78.1 °F 8.1 °F 7% 29.80 in 10.0 mi West 8.1 mph - N/A   Clear
9:53 PM 75.9 °F 5.0 °F 6% 29.82 in 10.0 mi Variable 3.5 mph - N/A   Clear
10:53 PM 73.0 °F 7.0 °F 8% 29.82 in 10.0 mi SW 4.6 mph - N/A   Clear
11:53 PM 71.1 °F 8.1 °F 9% 29.82 in 10.0 mi Calm Calm - N/A   Clear